Regional Weather Roundup
Issued by NWS

Home | Current Version | Previous Version | Graphics & Text | Print | Product List | Glossary On
Versions: 1 2 3 4 5 6 7 8 9 10 11 12 13 14 15 16 17 18 19 20 21 22 23 24 25 26 27 28 29 30 31 32 33 34 35 36 37 38 39 40 41 42 43 44 45 46 47 48 49 50
573
ASUS43 KDTX 201210
RWRMI
MICHIGAN HOURLY REGIONAL WEATHER ROUNDUP
NATIONAL WEATHER SERVICE DETROIT/PONTIAC MI
ISSUED BY NATIONAL WEATHER SERVICE GRAND RAPIDS MI
800 AM EDT THU JUL 20 2017

NOTE: "FAIR" INDICATES FEW OR NO CLOUDS BELOW 12,000 FEET WITH NO
SIGNIFICANT WEATHER AND/OR OBSTRUCTION TO VISIBILITY.

MIZ047>049-052>055-059>063-066>070-074>076-081>083-201300-
SOUTHEAST LOWER MICHIGAN

CITY           SKY/WX    TMP DP  RH WIND       PRES   REMARKS
ADRIAN         CLOUDY    74  70  87 W7        30.04R
6HR MIN TEMP:  72; 6HR MAX TEMP:  74;

ALMA           CLOUDY    71  66  84 W8        29.99R
ANN ARBOR      MOSUNNY   73  72  96 W6        30.00S FOG
BAD AXE        CLOUDY    69  64  83 S7        29.95R
6HR MIN TEMP:  65; 6HR MAX TEMP:  69;

DETROIT CITY   MOSUNNY   77  73  87 SW9       29.97S
6HR MIN TEMP:  72; 6HR MAX TEMP:  77;

DETROIT        CLOUDY    76  72  87 SW10      29.99R
6HR MIN TEMP:  73; 6HR MAX TEMP:  76;

FLINT          CLOUDY    74  70  87 SW8       29.97S
6HR MIN TEMP:  70; 6HR MAX TEMP:  74;

GROSSE ILE     CLOUDY    77  73  86 SW6       29.98S
6HR MIN TEMP:  71; 6HR MAX TEMP:  77;

HILLSDALE      PTSUNNY   72  64  78 W8        30.06R
HOWELL         CLOUDY    73  69  87 W8        30.00R
6HR MIN TEMP:  72; 6HR MAX TEMP:  74;


CITY           SKY/WX    TMP DP  RH WIND       PRES   REMARKS
JACKSON        CLOUDY    73  68  84 SW13      30.01F
6HR MIN TEMP:  71; 6HR MAX TEMP:  76;

LANSING        CLOUDY    72  66  81 W8        30.00R
6HR MIN TEMP:  72; 6HR MAX TEMP:  75; 6HR PCP: TRACE;

MASON          CLOUDY    73  68  86 W8        30.01R
MONROE         CLOUDY    75  73  91 SW7       29.99S
MT. CLEMENS    PTSUNNY   76  76  99 SW8       29.96R
6HR MIN TEMP:  67; 6HR MAX TEMP:  76;

PONTIAC        CLOUDY    73  71  93 SW8       29.97F
6HR MIN TEMP:  72; 6HR MAX TEMP:  73;

PORT HOPE        N/A     71  62  73 VRB7      29.92S
6HR MIN TEMP:  67; 6HR MAX TEMP:  71;

PORT HURON     CLOUDY    72  66  83 S6        29.96F
TRI CITIES     CLOUDY    73  70  90 W10       29.96R
6HR MIN TEMP:  72; 6HR MAX TEMP:  73;

YPSILANTI      CLOUDY    75  73  93 W9        30.00R
6HR MIN TEMP:  70; 6HR MAX TEMP:  75;

$$
MIZ043>046-050>051-056>058-064>065-071>073-077>080-201300-
SOUTHWEST LOWER MICHIGAN

CITY           SKY/WX    TMP DP  RH WIND       PRES   REMARKS
BATTLE CREEK   CLOUDY    70  66  87 SW12      30.03F
6HR MIN TEMP:  70; 6HR MAX TEMP:  75;

BENTON HARBOR  LGT RAIN  72  68  87 W12       30.06R
6HR MIN TEMP:  71; 6HR MAX TEMP:  73; 6HR PCP:  0.01;

BIG RAPIDS     CLOUDY    68  62  79 NW3       29.99R
6HR MIN TEMP:  65; 6HR MAX TEMP:  70;

COLDWATER      CLOUDY    71  69  94 SW6       30.05R
6HR MIN TEMP:  70; 6HR MAX TEMP:  77;

HOLLAND        LGT RAIN  70  67  90 W12       30.03R
6HR MIN TEMP:  70; 6HR MAX TEMP:  73; 6HR PCP:  0.03;

GRAND RAPIDS   LGT RAIN  70  68  93 NW12      30.02R
6HR MIN TEMP:  70; 6HR MAX TEMP:  74; 6HR PCP:  0.02;

KALAMAZOO      CLOUDY    71  64  78 SW7       30.04R
6HR MIN TEMP:  71; 6HR MAX TEMP:  76;

MARSHALL       CLOUDY    71  69  93 SW7       30.02F
6HR MIN TEMP:  70; 6HR MAX TEMP:  75;

MOUNT PLEASANT CLOUDY    71  65  80 W6        29.97R
6HR MIN TEMP:  66; 6HR MAX TEMP:  71;

MUSKEGON       LGT RAIN  70  66  87 W9G16     30.00R
6HR MIN TEMP:  69; 6HR MAX TEMP:  73; 6HR PCP:  0.07;

STURGIS        CLOUDY    70  67  92 SW3       30.06R
6HR MIN TEMP:  69; 6HR MAX TEMP:  75;

$$
MIZ016>042-201300-
NORTHERN LOWER MICHIGAN

CITY           SKY/WX    TMP DP  RH WIND       PRES   REMARKS
ALPENA         CLOUDY    67  60  78 E6        29.94F
6HR MIN TEMP:  58; 6HR MAX TEMP:  67; 6HR PCP: TRACE;

BEAVER ISLAND  SUNNY     67  62  82 CALM      29.91S
6HR MIN TEMP:  60; 6HR MAX TEMP:  67;

BELLAIRE       MOSUNNY   68  61  76 S6        29.93R
6HR MIN TEMP:  56; 6HR MAX TEMP:  68;

CADILLAC       CLOUDY    70  63  77 W8G16     29.98R
CHARLEVOIX     SUNNY     67  60  76 SE3       29.94S
6HR MIN TEMP:  63; 6HR MAX TEMP:  67;

GAYLORD        MOSUNNY   68  60  75 SW8       29.95S
6HR MIN TEMP:  61; 6HR MAX TEMP:  68;

HOUGHTON LAKE  CLOUDY    70  63  78 W8        29.97R
6HR MIN TEMP:  61; 6HR MAX TEMP:  70;

MANISTEE       CLOUDY    70  66  87 W10       29.98R
OSCODA         CLOUDY    70  63  78 SW5       29.92S
6HR MIN TEMP:  60; 6HR MAX TEMP:  70;

PELLSTON       CLOUDY    65  60  84 CALM      29.92S
6HR MIN TEMP:  55; 6HR MAX TEMP:  65;

TRAVERSE CITY  CLOUDY    71  62  73 SW8       29.93R
6HR MIN TEMP:  63; 6HR MAX TEMP:  71;

LUDINGTON      CLOUDY    68  66  93 SW9       29.99R
6HR MIN TEMP:  66; 6HR MAX TEMP:  71;

$$
MIZ007>008-015-201300-
EASTERN UPPER MICHIGAN

CITY           SKY/WX    TMP DP  RH WIND       PRES   REMARKS
KINROSS        SUNNY     67  58  72 SE10      29.92
6HR MIN TEMP:  61; 6HR MAX TEMP:  67;

MACKINAC ISLAN SUNNY     67  61  80 SE8       29.91F
6HR MIN TEMP:  61; 6HR MAX TEMP:  68;

NEWBERRY       SUNNY     64  59  83 SE5       29.91S
6HR MIN TEMP:  58; 6HR MAX TEMP:  64;

S. S. MARIE    SUNNY     66  59  78 E6        29.91F
6HR MIN TEMP:  62; 6HR MAX TEMP:  66; 6HR PCP: TRACE;

$$
MIZ004>006-011>014-085-201300-
CENTRAL UPPER MICHIGAN

CITY           SKY/WX    TMP DP  RH WIND       PRES   REMARKS
MANISTIQUE     SUNNY     64  61  89 CALM      29.90S
6HR MIN TEMP:  53; 6HR MAX TEMP:  64;

ESCANABA       SUNNY     61  59  93 CALM      29.92R
6HR MIN TEMP:  55; 6HR MAX TEMP:  63;

MENOMINEE      SUNNY     66  61  84 W5        29.97R
6HR MIN TEMP:  62; 6HR MAX TEMP:  69;

SAWYER-GWINN   SUNNY     59  55  88 SW6       29.93S
$$
MIZ001>003-009>011-084-201300-
WESTERN UPPER MICHIGAN

CITY           SKY/WX    TMP DP  RH WIND       PRES   REMARKS
IRON MOUNTAIN  MOSUNNY   63  55  75 NW5       29.94R
6HR MIN TEMP:  55; 6HR MAX TEMP:  65;

HOUGHTON       SUNNY     66  57  72 W17       29.89S
6HR MIN TEMP:  55; 6HR MAX TEMP:  66;

COPPER HARBOR    N/A     67  57  70 S3        29.87R
6HR MIN TEMP:  64; 6HR MAX TEMP:  67;

IRONWOOD       SUNNY     64  61  90 SW3       29.96R
6HR MIN TEMP:  55; 6HR MAX TEMP:  64;

$$

ABBREVIATIONS USED IN REMARKS
   TC - TEMPERATURE IN CELSIUS
  WCI - WIND CHILL INDEX
   HX - HEAT INDEX
  VSB - VISIBILITY





USA.gov is the U.S. government's official web portal to all federal, state and local government web resources and services.